Time,TemperatureF,DewpointF,PressureIn,WindDirection,WindDirectionDegrees,WindSpeedMPH,WindSpeedGustMPH,Humidity,HourlyPrecipIn,Conditions,Clouds,dailyrainin,SoftwareType,DateUTC
2013-02-03 00:03:00,42.0,41.0,30.09,SE,141,0.0,0.0,95,0.00,,,0.00,,2013-02-03 05:03:00,
2013-02-03 00:12:00,42.0,41.0,30.09,SE,141,0.0,0.0,95,0.00,,,0.00,,2013-02-03 05:12:00,
2013-02-03 00:22:00,42.0,41.0,30.09,SE,141,0.0,0.0,95,0.00,,,0.00,,2013-02-03 05:22:00,
2013-02-03 00:32:00,42.0,41.0,30.09,SE,141,0.0,0.0,95,0.00,,,0.00,,2013-02-03 05:32:00,
2013-02-03 00:42:00,42.0,41.0,30.09,SE,141,0.0,0.0,95,0.00,,,0.00,,2013-02-03 05:42:00,
2013-02-03 00:52:00,43.0,41.0,30.07,SW,234,0.0,2.0,92,0.00,,,0.00,,2013-02-03 05:52:00,
2013-02-03 01:02:00,43.0,41.0,30.07,SW,234,0.0,2.0,92,0.00,,,0.00,,2013-02-03 06:02:00,
2013-02-03 01:11:00,43.0,41.0,30.07,SW,234,0.0,2.0,92,0.00,,,0.00,,2013-02-03 06:11:00,
2013-02-03 01:21:00,44.0,41.0,30.05,SW,234,1.0,2.0,90,0.00,,,0.00,,2013-02-03 06:21:00,
2013-02-03 01:32:00,44.0,41.0,30.05,SW,234,1.0,2.0,90,0.00,,,0.00,,2013-02-03 06:32:00,
2013-02-03 01:42:00,44.0,41.0,30.05,SW,234,1.0,2.0,90,0.00,,,0.00,,2013-02-03 06:42:00,
2013-02-03 01:52:00,46.0,41.0,30.04,WSW,237,1.0,3.0,82,0.00,,,0.00,,2013-02-03 06:52:00,
2013-02-03 02:02:00,47.0,41.0,30.04,SW,230,1.0,5.0,79,0.00,,,0.00,,2013-02-03 07:02:00,
2013-02-03 02:11:00,47.0,41.0,30.04,SW,230,1.0,5.0,79,0.00,,,0.00,,2013-02-03 07:11:00,
2013-02-03 02:21:00,47.0,40.0,30.03,SW,236,1.0,3.0,76,0.00,,,0.00,,2013-02-03 07:21:00,
2013-02-03 02:32:00,47.0,40.0,30.03,SW,236,1.0,3.0,76,0.00,,,0.00,,2013-02-03 07:32:00,
2013-02-03 02:42:00,47.0,40.0,30.03,SW,236,1.0,3.0,76,0.00,,,0.00,,2013-02-03 07:42:00,
2013-02-03 02:52:00,47.0,40.0,30.03,SW,236,1.0,3.0,76,0.00,,,0.00,,2013-02-03 07:52:00,
2013-02-03 03:22:00,44.0,36.0,30.02,SW,232,0.0,3.0,74,0.00,,,0.00,,2013-02-03 08:22:00,
2013-02-03 03:32:00,44.0,36.0,30.02,SW,232,0.0,3.0,74,0.00,,,0.00,,2013-02-03 08:32:00,
2013-02-03 03:42:00,44.0,36.0,30.02,SW,232,0.0,3.0,74,0.00,,,0.00,,2013-02-03 08:42:00,
2013-02-03 03:52:00,44.0,36.0,30.02,SW,232,0.0,3.0,74,0.00,,,0.00,,2013-02-03 08:52:00,
2013-02-03 04:22:00,41.0,34.0,30.00,West,274,1.0,3.0,75,0.00,,,0.00,,2013-02-03 09:22:00,
2013-02-03 04:32:00,41.0,34.0,30.00,West,274,1.0,3.0,75,0.00,,,0.00,,2013-02-03 09:32:00,
2013-02-03 04:42:00,41.0,34.0,30.00,West,274,1.0,3.0,75,0.00,,,0.00,,2013-02-03 09:42:00,
2013-02-03 04:52:00,42.0,32.0,29.99,WSW,257,2.0,3.0,68,0.00,,,0.00,,2013-02-03 09:52:00,
2013-02-03 05:01:00,42.0,32.0,29.99,WSW,257,2.0,3.0,68,0.00,,,0.00,,2013-02-03 10:01:00,
2013-02-03 05:11:00,42.0,32.0,29.99,WSW,257,2.0,3.0,68,0.00,,,0.00,,2013-02-03 10:11:00,
2013-02-03 05:21:00,43.0,32.0,30.01,West,281,1.0,3.0,65,0.00,,,0.00,,2013-02-03 10:21:00,
2013-02-03 05:32:00,43.0,32.0,30.01,West,259,1.0,3.0,65,0.00,,,0.00,,2013-02-03 10:32:00,
2013-02-03 05:42:00,43.0,32.0,30.01,West,259,1.0,3.0,65,0.00,,,0.00,,2013-02-03 10:42:00,
2013-02-03 05:53:00,43.0,32.0,30.01,West,259,1.0,3.0,65,0.00,,,0.00,,2013-02-03 10:53:00,
2013-02-03 06:02:00,43.0,32.0,30.01,West,259,1.0,3.0,65,0.00,,,0.00,,2013-02-03 11:02:00,
2013-02-03 06:11:00,43.0,32.0,30.01,West,259,1.0,3.0,65,0.00,,,0.00,,2013-02-03 11:11:00,
2013-02-03 06:32:00,44.0,35.0,30.02,WSW,255,2.0,5.0,70,0.00,,,0.00,,2013-02-03 11:32:00,
2013-02-03 06:42:00,44.0,35.0,30.02,WSW,255,2.0,5.0,70,0.00,,,0.00,,2013-02-03 11:42:00,
2013-02-03 06:52:00,44.0,36.0,30.03,West,270,1.0,5.0,74,0.00,,,0.00,,2013-02-03 11:52:00,
2013-02-03 07:02:00,43.0,36.0,30.03,West,261,1.0,3.0,75,0.00,,,0.00,,2013-02-03 12:02:00,
2013-02-03 07:12:00,43.0,36.0,30.03,West,261,1.0,3.0,75,0.00,,,0.00,,2013-02-03 12:12:00,
2013-02-03 07:22:00,43.0,36.0,30.03,WSW,255,3.0,6.0,75,0.00,,,0.00,,2013-02-03 12:22:00,
2013-02-03 07:32:00,43.0,36.0,30.03,WSW,255,3.0,6.0,75,0.00,,,0.00,,2013-02-03 12:32:00,
2013-02-03 07:42:00,43.0,36.0,30.03,WSW,255,3.0,6.0,75,0.00,,,0.00,,2013-02-03 12:42:00,
2013-02-03 07:53:00,43.0,36.0,30.03,West,272,2.0,5.0,75,0.00,,,0.00,,2013-02-03 12:53:00,
2013-02-03 08:03:00,44.0,36.0,30.04,SSW,205,2.0,7.0,74,0.00,,,0.00,,2013-02-03 13:03:00,
2013-02-03 08:12:00,44.0,36.0,30.04,SSW,205,2.0,7.0,74,0.00,,,0.00,,2013-02-03 13:12:00,
2013-02-03 08:22:00,44.0,36.0,30.05,West,262,3.0,8.0,73,0.00,,,0.00,,2013-02-03 13:22:00,
2013-02-03 08:32:00,44.0,36.0,30.05,WNW,288,3.0,6.0,72,0.00,,,0.00,,2013-02-03 13:32:00,
2013-02-03 08:42:00,44.0,36.0,30.05,WNW,288,3.0,6.0,72,0.00,,,0.00,,2013-02-03 13:42:00,
2013-02-03 08:52:00,45.0,36.0,30.05,West,263,3.0,6.0,71,0.00,,,0.00,,2013-02-03 13:52:00,
2013-02-03 09:02:00,45.0,36.0,30.05,West,263,3.0,6.0,71,0.00,,,0.00,,2013-02-03 14:02:00,
2013-02-03 09:12:00,45.0,36.0,30.05,West,263,3.0,6.0,71,0.00,,,0.00,,2013-02-03 14:12:00,
2013-02-03 09:22:00,46.0,35.0,30.06,West,277,3.0,10.0,65,0.00,,,0.00,,2013-02-03 14:22:00,
2013-02-03 09:32:00,47.0,35.0,30.06,West,263,3.0,7.0,64,0.00,,,0.00,,2013-02-03 14:32:00,
2013-02-03 09:42:00,47.0,35.0,30.06,West,263,3.0,7.0,64,0.00,,,0.00,,2013-02-03 14:42:00,
2013-02-03 09:52:00,48.0,36.0,30.06,WNW,294,2.0,8.0,63,0.00,,,0.00,,2013-02-03 14:52:00,
2013-02-03 10:03:00,48.0,36.0,30.06,WNW,294,2.0,8.0,63,0.00,,,0.00,,2013-02-03 15:03:00,
2013-02-03 10:12:00,48.0,36.0,30.06,WNW,294,2.0,8.0,63,0.00,,,0.00,,2013-02-03 15:12:00,
2013-02-03 10:22:00,50.0,36.0,30.06,WNW,295,2.0,8.0,59,0.00,,,0.00,,2013-02-03 15:22:00,
2013-02-03 10:33:00,50.0,35.0,30.06,WSW,257,2.0,7.0,57,0.00,,,0.00,,2013-02-03 15:33:00,
2013-02-03 10:42:00,50.0,35.0,30.06,WSW,257,2.0,7.0,57,0.00,,,0.00,,2013-02-03 15:42:00,
2013-02-03 10:52:00,51.0,34.0,30.06,West,262,3.0,7.0,53,0.00,,,0.00,,2013-02-03 15:52:00,
2013-02-03 11:03:00,51.0,34.0,30.05,WNW,302,3.0,8.0,52,0.00,,,0.00,,2013-02-03 16:03:00,
2013-02-03 11:11:00,51.0,34.0,30.05,WNW,302,3.0,8.0,52,0.00,,,0.00,,2013-02-03 16:11:00,
2013-02-03 11:22:00,52.0,34.0,30.04,West,277,2.0,9.0,51,0.00,,,0.00,,2013-02-03 16:22:00,
2013-02-03 11:33:00,52.0,34.0,30.04,West,277,2.0,9.0,51,0.00,,,0.00,,2013-02-03 16:33:00,
2013-02-03 11:42:00,52.0,34.0,30.04,West,277,2.0,9.0,51,0.00,,,0.00,,2013-02-03 16:42:00,
2013-02-03 11:52:00,55.0,35.0,30.03,West,262,3.0,8.0,47,0.00,,,0.00,,2013-02-03 16:52:00,
2013-02-03 12:03:00,55.0,35.0,30.03,West,262,3.0,8.0,47,0.00,,,0.00,,2013-02-03 17:03:00,
2013-02-03 12:12:00,55.0,35.0,30.03,West,262,3.0,8.0,47,0.00,,,0.00,,2013-02-03 17:12:00,
2013-02-03 12:22:00,55.0,35.0,30.03,West,262,3.0,8.0,47,0.00,,,0.00,,2013-02-03 17:22:00,
2013-02-03 12:32:00,56.0,33.0,30.01,WSW,256,3.0,12.0,42,0.00,,,0.00,,2013-02-03 17:32:00,
2013-02-03 12:42:00,56.0,33.0,30.01,WSW,256,3.0,12.0,42,0.00,,,0.00,,2013-02-03 17:42:00,
2013-02-03 12:52:00,56.0,33.0,30.01,WSW,256,3.0,12.0,42,0.00,,,0.00,,2013-02-03 17:52:00,
2013-02-03 13:03:00,56.0,33.0,30.01,WSW,256,3.0,12.0,42,0.00,,,0.00,,2013-02-03 18:03:00,
2013-02-03 13:12:00,56.0,33.0,30.01,WSW,256,3.0,12.0,42,0.00,,,0.00,,2013-02-03 18:12:00,
2013-02-03 13:23:00,58.0,34.0,29.96,West,277,2.0,8.0,41,0.00,,,0.00,,2013-02-03 18:23:00,
2013-02-03 13:33:00,58.0,34.0,29.96,West,277,2.0,8.0,41,0.00,,,0.00,,2013-02-03 18:33:00,
2013-02-03 13:42:00,58.0,34.0,29.96,West,277,2.0,8.0,41,0.00,,,0.00,,2013-02-03 18:42:00,
2013-02-03 13:52:00,58.0,34.0,29.96,West,277,2.0,8.0,41,0.00,,,0.00,,2013-02-03 18:52:00,
2013-02-03 14:02:00,58.0,34.0,29.96,West,277,2.0,8.0,41,0.00,,,0.00,,2013-02-03 19:02:00,
2013-02-03 14:22:00,59.0,34.0,29.93,WSW,253,4.0,10.0,39,0.00,,,0.00,,2013-02-03 19:22:00,
2013-02-03 14:32:00,59.0,34.0,29.91,WSW,245,1.0,3.0,39,0.00,,,0.00,,2013-02-03 19:32:00,
2013-02-03 14:42:00,59.0,34.0,29.91,WSW,245,1.0,3.0,39,0.00,,,0.00,,2013-02-03 19:42:00,
2013-02-03 14:52:00,60.0,34.0,29.92,SW,228,4.0,12.0,38,0.00,,,0.00,,2013-02-03 19:52:00,
2013-02-03 15:02:00,60.0,34.0,29.92,SW,228,4.0,12.0,38,0.00,,,0.00,,2013-02-03 20:02:00,
2013-02-03 15:12:00,60.0,34.0,29.92,SW,228,4.0,12.0,38,0.00,,,0.00,,2013-02-03 20:12:00,
2013-02-03 15:22:00,60.0,34.0,29.91,WNW,297,4.0,8.0,37,0.00,,,0.00,,2013-02-03 20:22:00,
2013-02-03 15:33:00,60.0,34.0,29.91,West,271,3.0,10.0,37,0.00,,,0.00,,2013-02-03 20:33:00,
2013-02-03 15:42:00,60.0,34.0,29.91,West,271,3.0,10.0,37,0.00,,,0.00,,2013-02-03 20:42:00,
2013-02-03 15:52:00,60.0,34.0,29.91,WNW,282,3.0,9.0,38,0.00,,,0.00,,2013-02-03 20:52:00,
2013-02-03 16:03:00,60.0,33.0,29.91,WSW,255,5.0,10.0,36,0.00,,,0.00,,2013-02-03 21:03:00,
2013-02-03 16:11:00,60.0,33.0,29.91,WSW,255,5.0,10.0,36,0.00,,,0.00,,2013-02-03 21:11:00,
2013-02-03 16:21:00,60.0,34.0,29.91,WSW,241,2.0,9.0,37,0.00,,,0.00,,2013-02-03 21:21:00,
2013-02-03 16:33:00,60.0,33.0,29.91,West,281,4.0,12.0,36,0.00,,,0.00,,2013-02-03 21:33:00,
2013-02-03 16:42:00,60.0,33.0,29.91,West,281,4.0,12.0,36,0.00,,,0.00,,2013-02-03 21:42:00,
2013-02-03 16:52:00,60.0,32.0,29.91,West,264,3.0,12.0,35,0.00,,,0.00,,2013-02-03 21:52:00,
2013-02-03 17:02:00,60.0,32.0,29.91,West,264,3.0,12.0,35,0.00,,,0.00,,2013-02-03 22:02:00,
2013-02-03 17:11:00,60.0,32.0,29.91,West,264,3.0,12.0,35,0.00,,,0.00,,2013-02-03 22:11:00,
2013-02-03 17:21:00,60.0,32.0,29.91,West,264,3.0,12.0,35,0.00,,,0.00,,2013-02-03 22:21:00,
2013-02-03 17:32:00,60.0,32.0,29.91,West,264,3.0,12.0,35,0.00,,,0.00,,2013-02-03 22:32:00,
2013-02-03 17:52:00,59.0,33.0,29.91,WSW,252,3.0,6.0,38,0.00,,,0.00,,2013-02-03 22:52:00,
2013-02-03 18:02:00,59.0,33.0,29.91,WSW,252,3.0,6.0,38,0.00,,,0.00,,2013-02-03 23:02:00,
2013-02-03 18:12:00,59.0,33.0,29.91,WSW,252,3.0,6.0,38,0.00,,,0.00,,2013-02-03 23:12:00,
2013-02-03 18:22:00,57.0,34.0,29.92,SW,234,2.0,3.0,42,0.00,,,0.00,,2013-02-03 23:22:00,
2013-02-03 18:33:00,57.0,34.0,29.92,SW,234,2.0,3.0,42,0.00,,,0.00,,2013-02-03 23:33:00,
2013-02-03 18:42:00,57.0,34.0,29.92,SW,234,2.0,3.0,42,0.00,,,0.00,,2013-02-03 23:42:00,
2013-02-03 18:52:00,57.0,34.0,29.92,SW,234,2.0,3.0,42,0.00,,,0.00,,2013-02-03 23:52:00,
2013-02-03 19:02:00,54.0,35.0,29.94,SW,235,2.0,3.0,49,0.00,,,0.00,,2013-02-04 00:02:00,
2013-02-03 19:11:00,54.0,35.0,29.94,SW,235,2.0,3.0,49,0.00,,,0.00,,2013-02-04 00:11:00,
2013-02-03 19:22:00,53.0,35.0,29.94,SW,232,1.0,3.0,51,0.00,,,0.00,,2013-02-04 00:22:00,
2013-02-03 19:32:00,53.0,35.0,29.94,SW,232,1.0,3.0,51,0.00,,,0.00,,2013-02-04 00:32:00,
2013-02-03 19:42:00,53.0,35.0,29.94,SW,232,1.0,3.0,51,0.00,,,0.00,,2013-02-04 00:42:00,
2013-02-03 19:52:00,53.0,35.0,29.94,SW,232,1.0,3.0,51,0.00,,,0.00,,2013-02-04 00:52:00,
2013-02-03 20:01:00,53.0,35.0,29.94,SW,232,1.0,3.0,51,0.00,,,0.00,,2013-02-04 01:01:00,
2013-02-03 20:22:00,49.0,36.0,29.96,SW,232,0.0,2.0,61,0.00,,,0.00,,2013-02-04 01:22:00,
2013-02-03 20:32:00,49.0,36.0,29.96,SW,232,0.0,2.0,61,0.00,,,0.00,,2013-02-04 01:32:00,
2013-02-03 20:42:00,49.0,36.0,29.96,SW,232,0.0,2.0,61,0.00,,,0.00,,2013-02-04 01:42:00,
2013-02-03 20:52:00,47.0,37.0,29.98,North,349,1.0,2.0,67,0.00,,,0.00,,2013-02-04 01:52:00,
2013-02-03 21:02:00,47.0,37.0,29.98,North,349,1.0,2.0,67,0.00,,,0.00,,2013-02-04 02:02:00,
2013-02-03 21:11:00,47.0,37.0,29.98,North,349,1.0,2.0,67,0.00,,,0.00,,2013-02-04 02:11:00,
2013-02-03 21:21:00,47.0,37.0,29.98,North,349,1.0,2.0,67,0.00,,,0.00,,2013-02-04 02:21:00,
2013-02-03 21:32:00,45.0,36.0,29.98,WSW,243,0.0,3.0,70,0.00,,,0.00,,2013-02-04 02:32:00,
2013-02-03 21:42:00,45.0,36.0,29.98,WSW,243,0.0,3.0,70,0.00,,,0.00,,2013-02-04 02:42:00,
2013-02-03 21:52:00,45.0,36.0,29.98,WSW,243,0.0,3.0,70,0.00,,,0.00,,2013-02-04 02:52:00,
2013-02-03 22:02:00,44.0,36.0,30.00,NNW,342,1.0,3.0,74,0.00,,,0.00,,2013-02-04 03:02:00,
2013-02-03 22:21:00,44.0,36.0,30.01,NNW,342,0.0,0.0,74,0.00,,,0.00,,2013-02-04 03:21:00,
2013-02-03 22:32:00,43.0,36.0,30.01,NNW,342,0.0,0.0,75,0.00,,,0.00,,2013-02-04 03:32:00,
2013-02-03 22:52:00,43.0,36.0,30.01,NNW,341,0.0,0.0,76,0.00,,,0.00,,2013-02-04 03:52:00,
2013-02-03 23:01:00,42.0,35.0,30.01,NNW,341,0.0,0.0,76,0.00,,,0.00,,2013-02-04 04:01:00,
2013-02-03 23:21:00,42.0,35.0,30.02,NNW,342,0.0,0.0,77,0.00,,,0.00,,2013-02-04 04:21:00,
2013-02-03 23:32:00,41.0,35.0,30.02,NNW,342,0.0,0.0,78,0.00,,,0.00,,2013-02-04 04:32:00,
2013-02-03 23:42:00,41.0,35.0,30.02,NNW,342,0.0,0.0,78,0.00,,,0.00,,2013-02-04 04:42:00,
2013-02-03 23:52:00,41.0,35.0,30.02,NNW,341,0.0,0.0,79,0.00,,,0.00,,2013-02-04 04:52:00,